Des Moines, IA

7:40 AM CDT on October 20, 2017 (GMT -0500)
Des Moines International

Weather History for KDSM - October, 2013

Change the Weather History Date:

Friday, October 18, 2013

  Actual Average Record
Temperature  
Mean Temperature 45 °F 52 °F  
Max Temperature 51 °F 62 °F 87 °F (1950)
Min Temperature 39 °F 42 °F 22 °F (1972)
Degree Days  
Heating Degree Days 20 13  
Month to date heating degree days 122 183  
Since 1 July heating degree days 146 283  
Cooling Degree Days 0 0  
Month to date cooling degree days 31 11  
Year to date cooling degree days 1353 1063  
Moisture  
Dew Point 33 °F    
Average Humidity 63    
Maximum Humidity 85    
Minimum Humidity 41    
Precipitation  
Precipitation 0.00 in 0.09 in 2.01 in (1892)
Month to date precipitation 3.04 1.52  
Year to date precipitation 28.94 31.29  
Snow  
Snow 0.00 in 0.00 in T in (1991)
Month to date snowfall 0.0 0.1  
Since 1 July snowfall 0.0 0.1  
Since 1 September snowfall 0.0 0.1  
Snow Depth 0.00 in    
Sea Level Pressure  
Sea Level Pressure 30.02 in    
Wind  
Wind Speed 10 mph (WNW)    
Max Wind Speed 21 mph    
Max Gust Speed 26 mph    
Visibility 10 miles    
Events      
T = Trace of Precipitation, MM = Missing Value Source: NWS Daily Summary

Daily Weather History Graph

Daily Weather History Graph

Search for Another Location

Airport or City:

Trip Planner

Search our weather history database for the weather conditions in past years. The results will help you decide how hot, cold, wet, or windy it might be!

Date:

Astronomy

Oct. 18, 2013 Rise Set
Actual Time 7:30 AM CDT 6:28 PM CDT
Civil Twilight 7:02 AM CDT 6:56 PM CDT
Nautical Twilight 6:30 AM CDT 7:28 PM CDT
Astronomical Twilight 5:57 AM CDT 8:00 PM CDT
Moon 6:18 PM CDT (10/18) 7:06 AM CDT (10/18)
Length of Visible Light 11h 54m
Length of Day
10h 58m
Full, 100% of the Moon is Illuminated
Oct 18
Full
Oct 18
Full
Oct 26
Last Quarter
Nov 3
New
Nov 9
First Quarter

Hourly Weather History & Observations

Time (CDT) Temp. Windchill Dew Point Humidity Pressure Visibility Wind Dir Wind Speed Gust Speed Precip Events Conditions
12:54 AM 46.0 °F 39.6 °F 37.0 °F 71% 29.97 in 10.0 mi NW 15.0 mph 21.9 mph N/A   Overcast
1:25 AM 45.0 °F 38.2 °F 36.0 °F 71% 29.97 in 10.0 mi NNW 15.0 mph - N/A   Mostly Cloudy
1:36 AM 45.0 °F 37.9 °F 36.0 °F 71% 29.97 in 10.0 mi NW 16.1 mph - N/A   Mostly Cloudy
1:54 AM 45.0 °F 37.1 °F 36.0 °F 71% 29.98 in 10.0 mi NW 19.6 mph 25.3 mph N/A   Mostly Cloudy
2:54 AM 44.1 °F 38.1 °F 35.1 °F 71% 29.99 in 10.0 mi NNW 11.5 mph - N/A   Mostly Cloudy
3:26 AM 43.0 °F 37.2 °F 36.0 °F 76% 29.98 in 10.0 mi NNW 10.4 mph - N/A   Scattered Clouds
3:54 AM 41.0 °F 34.7 °F 35.1 °F 79% 29.99 in 10.0 mi WNW 10.4 mph - N/A   Scattered Clouds
4:54 AM 39.9 °F 35.1 °F 35.1 °F 83% 30.00 in 10.0 mi West 6.9 mph - N/A   Clear
5:54 AM 39.0 °F 33.4 °F 35.1 °F 86% 30.02 in 10.0 mi West 8.1 mph - N/A   Partly Cloudy
6:54 AM 41.0 °F 34.7 °F 35.1 °F 79% 30.04 in 10.0 mi WNW 10.4 mph - N/A   Mostly Cloudy
7:54 AM 39.0 °F 34.0 °F 34.0 °F 82% 30.05 in 10.0 mi West 6.9 mph - N/A   Mostly Cloudy
8:54 AM 43.0 °F 36.4 °F 34.0 °F 71% 30.07 in 10.0 mi NW 12.7 mph - N/A   Overcast
9:54 AM 44.1 °F 37.7 °F 34.0 °F 68% 30.08 in 10.0 mi NNW 12.7 mph - N/A   Overcast
10:54 AM 46.9 °F - 34.0 °F 61% 30.08 in 10.0 mi NW 11.5 mph - N/A   Overcast
11:54 AM 48.0 °F - 32.0 °F 54% 30.09 in 10.0 mi WNW 9.2 mph - N/A   Overcast
12:54 PM 48.9 °F - 30.9 °F 50% 30.06 in 10.0 mi NW 13.8 mph - N/A   Overcast
1:54 PM 50.0 °F - 28.0 °F 43% 30.05 in 10.0 mi NNW 11.5 mph - N/A   Overcast
2:54 PM 51.1 °F - 28.0 °F 41% 30.03 in 10.0 mi NW 11.5 mph - N/A   Overcast
3:54 PM 51.1 °F - 28.9 °F 43% 30.03 in 10.0 mi WNW 11.5 mph - N/A   Overcast
4:54 PM 50.0 °F - 28.9 °F 44% 30.02 in 10.0 mi West 9.2 mph - N/A   Overcast
5:54 PM 48.0 °F - 30.9 °F 52% 30.02 in 10.0 mi WSW 6.9 mph - N/A   Overcast
6:54 PM 46.9 °F - 30.9 °F 54% 30.01 in 10.0 mi SW 8.1 mph - N/A   Overcast
7:54 PM 46.0 °F 41.9 °F 30.9 °F 56% 30.02 in 10.0 mi WSW 8.1 mph - N/A   Overcast
8:54 PM 43.0 °F 38.2 °F 32.0 °F 65% 30.01 in 10.0 mi WSW 8.1 mph - N/A   Overcast
9:54 PM 42.1 °F 37.7 °F 32.0 °F 67% 30.01 in 10.0 mi WSW 6.9 mph - N/A   Mostly Cloudy
10:54 PM 39.0 °F 34.0 °F 30.9 °F 73% 30.01 in 10.0 mi WSW 6.9 mph - N/A   Mostly Cloudy
11:54 PM 42.1 °F 38.4 °F 32.0 °F 67% 29.99 in 10.0 mi WSW 5.8 mph - N/A   Overcast